START_TIME,STEP,MOV.,AL01,t_acc.,AL02,t_acc.,E37,t_acc.,H21,t_acc.
1979-07-26 15:00:33.620 ,1,0,1.,24.0,0.,24.0,1.,24.0,0.,24.0
1979-07-26 15:00:57.620 ,2,1,1.,24.0,0.,24.0,1.,24.0,0.,24.0
1979-07-26 15:01:21.620 ,2,0,0.,24.0,0.,24.0,0.,24.0,0.,24.0
1979-07-26 15:01:45.620 ,3,1,1.,24.0,1.,24.0,0.,24.0,0.,24.0
1979-07-26 15:02:09.620 ,3,0,1.,24.0,0.,24.0,1.,24.0,0.,24.0
1979-07-26 15:02:33.620 ,4,1,0.,24.0,0.,24.0,0.,24.0,0.,24.0
1979-07-26 15:02:57.620 ,4,0,0.,24.0,0.,24.0,1.,24.0,0.,24.0
1979-07-26 15:03:21.620 ,5,1,0.,24.0,0.,24.0,0.,24.0,0.,24.0
1979-07-26 15:03:45.620 ,5,0,0.,24.0,0.,24.0,1.,24.0,0.,24.0
1979-07-26 15:04:09.620 ,6,1,0.,24.0,0.,24.0,0.,24.0,0.,24.0
1979-07-26 15:04:33.620 ,6,0,1.,24.0,0.,24.0,2.,24.0,0.,24.0
1979-07-26 15:04:57.620 ,7,1,10.,24.0,0.,24.0,1.,24.0,0.,24.0
1979-07-26 15:05:21.620 ,7,0,42.,24.0,0.,24.0,0.,24.0,0.,24.0
1979-07-26 15:05:45.620 ,7,1,30.,24.0,0.,24.0,1.,24.0,0.,24.0
1979-07-26 15:06:09.620 ,7,0,33.,24.0,0.,24.0,0.,24.0,0.,24.0
1979-07-26 15:06:33.620 ,6,1,21.,24.0,0.,24.0,1.,24.0,0.,24.0
1979-07-26 15:06:57.620 ,6,0,0.,24.0,1.,24.0,3.,24.0,0.,24.0
1979-07-26 15:07:21.620 ,5,1,0.,24.0,0.,24.0,1.,24.0,0.,24.0
1979-07-26 15:07:45.620 ,5,0,0.,24.0,0.,24.0,1.,24.0,0.,24.0
1979-07-26 15:08:09.620 ,4,1,0.,24.0,0.,24.0,1.,24.0,0.,24.0
1979-07-26 15:08:33.620 ,4,0,0.,24.0,0.,24.0,2.,24.0,0.,24.0
1979-07-26 15:08:57.620 ,3,1,1.,24.0,0.,24.0,1.,24.0,0.,24.0
1979-07-26 15:09:21.620 ,3,0,0.,24.0,0.,24.0,0.,24.0,0.,24.0
1979-07-26 15:09:45.620 ,2,1,0.,24.0,0.,24.0,1.,24.0,0.,24.0
1979-07-26 15:10:09.620 ,2,0,0.,24.0,0.,24.0,2.,24.0,0.,24.0
1979-07-26 15:10:33.620 ,1,1,0.,24.0,0.,24.0,1.,24.0,0.,24.0
1979-07-26 15:10:57.620 ,1,0,0.,24.0,0.,24.0,1.,24.0,0.,24.0
1979-07-26 15:11:21.620 ,0,1,2.,24.0,1.,24.0,1.,24.0,0.,24.0
1979-07-26 15:11:45.620 ,0,0,0.,24.0,0.,24.0,1.,24.0,0.,24.0
1979-07-26 15:12:09.620 ,0,1,2.,24.0,0.,24.0,0.,24.0,0.,24.0
1979-07-26 15:12:33.620 ,0,0,2.,24.0,0.,24.0,0.,24.0,0.,24.0
1979-07-26 15:12:57.620 ,1,1,2.,24.0,0.,24.0,0.,24.0,0.,24.0
1979-07-26 15:13:21.620 ,1,0,1.,24.0,0.,24.0,2.,24.0,0.,24.0
1979-07-26 15:13:45.620 ,2,1,2.,24.0,0.,24.0,1.,24.0,0.,24.0
1979-07-26 15:14:09.620 ,2,0,0.,24.0,1.,24.0,0.,24.0,0.,24.0
1979-07-26 15:14:33.620 ,3,1,0.,24.0,0.,24.0,0.,24.0,0.,24.0
1979-07-26 15:14:57.620 ,3,0,0.,24.0,0.,24.0,2.,24.0,0.,24.0
1979-07-26 15:15:21.620 ,4,1,1.,24.0,0.,24.0,0.,24.0,0.,24.0
1979-07-26 15:15:45.620 ,4,0,0.,24.0,0.,24.0,3.,24.0,0.,24.0
1979-07-26 15:16:09.620 ,5,1,1.,24.0,0.,24.0,1.,24.0,0.,24.0
1979-07-26 15:16:33.620 ,5,0,0.,24.0,0.,24.0,1.,24.0,0.,24.0
1979-07-26 15:16:57.620 ,6,1,0.,24.0,0.,24.0,2.,24.0,0.,24.0
1979-07-26 15:17:21.620 ,6,0,0.,24.0,0.,24.0,1.,24.0,0.,24.0
1979-07-26 15:17:45.620 ,7,1,1.,24.0,0.,24.0,3.,24.0,0.,24.0
1979-07-26 15:18:09.620 ,7,0,29.,24.0,0.,24.0,0.,24.0,0.,24.0
1979-07-26 15:18:33.620 ,7,1,25.,24.0,0.,24.0,2.,24.0,0.,24.0
1979-07-26 15:18:57.620 ,7,0,27.,24.0,0.,24.0,2.,24.0,0.,24.0
1979-07-26 15:19:21.620 ,6,1,19.,24.0,0.,24.0,2.,24.0,0.,24.0
1979-07-26 15:19:45.620 ,6,0,1.,24.0,0.,24.0,1.,24.0,0.,24.0
1979-07-26 15:20:09.620 ,5,1,0.,24.0,0.,24.0,3.,24.0,0.,24.0
1979-07-26 15:20:33.620 ,5,0,0.,24.0,0.,24.0,3.,24.0,0.,24.0
1979-07-26 15:20:57.620 ,4,1,0.,24.0,0.,24.0,2.,24.0,0.,24.0
1979-07-26 15:21:21.620 ,4,0,0.,24.0,0.,24.0,1.,24.0,0.,24.0
1979-07-26 15:21:45.620 ,3,1,0.,24.0,0.,24.0,0.,24.0,0.,24.0
1979-07-26 15:22:09.620 ,3,0,1.,24.0,0.,24.0,3.,24.0,0.,24.0
1979-07-26 15:22:33.620 ,2,1,0.,24.0,0.,24.0,1.,24.0,0.,24.0
1979-07-26 15:22:57.620 ,2,0,0.,24.0,0.,24.0,1.,24.0,0.,24.0
1979-07-26 15:23:21.620 ,1,1,0.,24.0,0.,24.0,1.,24.0,0.,24.0
1979-07-26 15:23:45.620 ,1,0,1.,24.0,0.,24.0,2.,24.0,0.,24.0
1979-07-26 15:24:09.620 ,0,1,0.,24.0,0.,24.0,2.,24.0,0.,24.0
1979-07-26 15:24:33.620 ,0,0,0.,24.0,0.,24.0,1.,24.0,0.,24.0
1979-07-26 15:24:57.620 ,0,1,2.,24.0,1.,24.0,1.,24.0,0.,24.0
1979-07-26 15:25:21.620 ,0,0,0.,24.0,0.,24.0,0.,24.0,0.,24.0
1979-07-26 15:25:45.620 ,1,1,1.,24.0,0.,24.0,1.,24.0,0.,24.0
1979-07-26 15:26:09.620 ,1,0,0.,24.0,0.,24.0,1.,24.0,0.,24.0
1979-07-26 15:26:33.620 ,2,1,0.,24.0,0.,24.0,1.,24.0,0.,24.0
1979-07-26 15:26:57.620 ,2,0,1.,24.0,0.,24.0,2.,24.0,0.,24.0
1979-07-26 15:27:21.620 ,3,1,0.,24.0,0.,24.0,1.,24.0,0.,24.0
1979-07-26 15:27:45.620 ,3,0,0.,24.0,0.,24.0,0.,24.0,0.,24.0
1979-07-26 15:28:09.620 ,4,1,0.,24.0,0.,24.0,2.,24.0,0.,24.0
1979-07-26 15:28:33.620 ,4,0,0.,24.0,0.,24.0,1.,24.0,0.,24.0
1979-07-26 15:28:57.620 ,5,1,0.,24.0,0.,24.0,0.,24.0,0.,24.0
1979-07-26 15:29:21.620 ,5,0,0.,24.0,0.,24.0,0.,24.0,0.,24.0
1979-07-26 15:29:45.620 ,6,1,1.,24.0,0.,24.0,1.,24.0,0.,24.0
1979-07-26 15:30:09.620 ,6,0,0.,24.0,0.,24.0,1.,24.0,0.,24.0
1979-07-26 15:30:33.620 ,7,0,13.,24.0,0.,24.0,3.,24.0,0.,24.0
1979-07-26 15:30:57.620 ,7,0,29.,24.0,0.,24.0,2.,24.0,0.,24.0
1979-07-26 15:31:21.620 ,5,1,19.,24.0,0.,24.0,0.,24.0,0.,24.0
1979-07-26 15:31:45.620 ,1,1,0.,24.0,0.,24.0,2.,24.0,0.,24.0
1979-07-26 15:32:09.620 ,2,1,1.,24.0,0.,24.0,0.,24.0,0.,24.0
1979-07-26 15:32:33.620 ,6,1,0.,24.0,0.,24.0,2.,24.0,0.,24.0
1979-07-26 15:32:57.620 ,5,1,16.,24.0,0.,24.0,2.,24.0,0.,24.0
1979-07-26 15:33:21.620 ,1,1,0.,24.0,0.,24.0,0.,24.0,0.,24.0
1979-07-26 15:33:45.620 ,2,1,0.,24.0,0.,24.0,0.,24.0,0.,24.0
1979-07-26 15:34:09.620 ,6,1,1.,24.0,0.,24.0,0.,24.0,0.,24.0
1979-07-26 15:34:33.620 ,5,1,15.,24.0,0.,24.0,2.,24.0,0.,24.0
1979-07-26 15:34:57.620 ,1,1,0.,24.0,0.,24.0,0.,24.0,0.,24.0
1979-07-26 15:35:21.620 ,2,1,0.,24.0,0.,24.0,0.,24.0,0.,24.0
1979-07-26 15:35:45.620 ,6,1,0.,24.0,0.,24.0,2.,24.0,0.,24.0
1979-07-26 15:36:09.620 ,5,1,14.,24.0,0.,24.0,1.,24.0,0.,24.0
1979-07-26 15:36:33.620 ,1,1,1.,24.0,1.,24.0,0.,24.0,0.,24.0
1979-07-26 15:36:57.620 ,2,1,0.,24.0,0.,24.0,0.,24.0,0.,24.0
1979-07-26 15:37:21.620 ,6,1,0.,24.0,0.,24.0,0.,24.0,0.,24.0
1979-07-26 15:37:45.620 ,5,1,9.,24.0,0.,24.0,2.,24.0,0.,24.0
1979-07-26 15:38:09.620 ,1,1,0.,24.0,0.,24.0,2.,24.0,0.,24.0
1979-07-26 15:38:33.620 ,2,1,0.,24.0,0.,24.0,1.,24.0,0.,24.0
1979-07-26 15:38:57.620 ,6,1,0.,24.0,0.,24.0,0.,24.0,0.,24.0
1979-07-26 15:39:21.620 ,5,1,20.,24.0,0.,24.0,1.,24.0,0.,24.0
1979-07-26 15:39:45.620 ,1,1,0.,24.0,0.,24.0,0.,24.0,0.,24.0
1979-07-26 15:40:09.620 ,2,1,2.,24.0,1.,24.0,0.,24.0,0.,24.0
1979-07-26 15:40:33.620 ,6,1,1.,24.0,0.,24.0,2.,24.0,0.,24.0
1979-07-26 15:40:57.620 ,5,1,14.,24.0,0.,24.0,0.,24.0,0.,24.0
1979-07-26 15:41:21.620 ,1,1,0.,24.0,1.,24.0,1.,24.0,0.,24.0
1979-07-26 15:41:45.620 ,0,0,1.,24.0,0.,24.0,1.,24.0,0.,24.0
1979-07-26 15:42:09.620 ,0,0,0.,24.0,0.,24.0,0.,24.0,0.,24.0
1979-07-26 15:42:33.620 ,5,1,18.,24.0,0.,24.0,2.,24.0,0.,24.0
1979-07-26 15:42:57.620 ,5,0,0.,24.0,0.,24.0,1.,24.0,0.,24.0
1979-07-26 15:43:21.620 ,4,1,0.,24.0,0.,24.0,1.,24.0,0.,24.0
1979-07-26 15:43:45.620 ,4,0,0.,24.0,0.,24.0,1.,24.0,0.,24.0
1979-07-26 15:44:09.620 ,3,1,0.,24.0,0.,24.0,4.,24.0,0.,24.0
1979-07-26 15:44:33.620 ,3,0,0.,24.0,0.,24.0,3.,24.0,0.,24.0
1979-07-26 15:44:57.620 ,2,1,1.,24.0,0.,24.0,3.,24.0,0.,24.0
1979-07-26 15:45:21.620 ,2,0,2.,24.0,0.,24.0,3.,24.0,0.,24.0
1979-07-26 15:45:45.620 ,1,1,2.,24.0,0.,24.0,2.,24.0,0.,24.0
1979-07-26 15:46:09.620 ,1,0,0.,24.0,1.,24.0,2.,24.0,0.,24.0
1979-07-26 15:46:33.620 ,0,1,2.,24.0,0.,24.0,3.,24.0,0.,24.0
1979-07-26 15:46:57.620 ,0,0,0.,24.0,0.,24.0,0.,24.0,0.,24.0
1979-07-26 15:47:21.620 ,0,1,0.,24.0,0.,24.0,2.,24.0,0.,24.0
1979-07-26 15:47:45.620 ,0,0,1.,24.0,0.,24.0,2.,24.0,0.,24.0
1979-07-26 15:48:09.620 ,1,1,4.,24.0,0.,24.0,0.,24.0,0.,24.0
1979-07-26 15:48:33.620 ,1,0,0.,24.0,0.,24.0,2.,24.0,0.,24.0
1979-07-26 15:48:57.620 ,2,1,0.,24.0,0.,24.0,2.,24.0,0.,24.0
1979-07-26 15:49:21.620 ,2,0,0.,24.0,0.,24.0,4.,24.0,0.,24.0
1979-07-26 15:49:45.620 ,3,1,2.,24.0,0.,24.0,1.,24.0,0.,24.0
1979-07-26 15:50:09.620 ,3,0,0.,24.0,0.,24.0,0.,24.0,0.,24.0
1979-07-26 15:50:33.620 ,4,1,0.,24.0,0.,24.0,4.,24.0,0.,24.0
1979-07-26 15:50:57.620 ,4,0,0.,24.0,0.,24.0,3.,24.0,0.,24.0
1979-07-26 15:51:21.620 ,5,1,0.,24.0,0.,24.0,2.,24.0,0.,24.0
1979-07-26 15:51:45.620 ,5,0,0.,24.0,0.,24.0,3.,24.0,0.,24.0
1979-07-26 15:52:09.620 ,6,1,0.,24.0,0.,24.0,3.,24.0,0.,24.0
1979-07-26 15:52:33.620 ,6,0,0.,24.0,0.,24.0,1.,24.0,0.,24.0
1979-07-26 15:52:57.620 ,7,1,4.,24.0,0.,24.0,3.,24.0,0.,24.0
1979-07-26 15:53:21.620 ,7,0,35.,24.0,0.,24.0,0.,24.0,0.,24.0
1979-07-26 15:53:45.620 ,7,1,32.,24.0,0.,24.0,3.,24.0,0.,24.0
1979-07-26 15:54:09.620 ,7,0,33.,24.0,0.,24.0,0.,24.0,0.,24.0
1979-07-26 15:54:33.620 ,6,1,32.,24.0,0.,24.0,3.,24.0,0.,24.0
1979-07-26 15:54:57.620 ,6,0,0.,24.0,0.,24.0,1.,24.0,0.,24.0
1979-07-26 15:55:21.620 ,5,1,0.,24.0,0.,24.0,2.,24.0,0.,24.0
1979-07-26 15:55:45.620 ,5,0,0.,24.0,0.,24.0,1.,24.0,0.,24.0
1979-07-26 15:56:09.620 ,4,1,0.,24.0,0.,24.0,0.,24.0,0.,24.0
1979-07-26 15:56:33.620 ,4,0,0.,24.0,0.,24.0,0.,24.0,0.,24.0
1979-07-26 15:56:57.620 ,3,1,0.,24.0,0.,24.0,0.,24.0,0.,24.0
1979-07-26 15:57:21.620 ,3,0,2.,24.0,1.,24.0,1.,24.0,0.,24.0
1979-07-26 15:57:45.620 ,2,1,1.,24.0,0.,24.0,0.,24.0,0.,24.0
1979-07-26 15:58:09.620 ,2,0,0.,24.0,0.,24.0,1.,24.0,0.,24.0
1979-07-26 15:58:33.620 ,1,1,0.,24.0,1.,24.0,1.,24.0,0.,24.0
1979-07-26 15:58:57.620 ,1,0,0.,24.0,0.,24.0,1.,24.0,0.,24.0
1979-07-26 15:59:21.620 ,0,1,0.,24.0,0.,24.0,0.,24.0,0.,24.0
1979-07-26 15:59:45.620 ,0,0,2.,24.0,2.,24.0,1.,24.0,0.,24.0
1979-07-26 16:00:09.620 ,0,1,3.,24.0,0.,24.0,1.,24.0,0.,24.0
1979-07-26 16:00:33.620 ,0,0,1.,24.0,0.,24.0,0.,24.0,0.,24.0
1979-07-26 16:00:57.620 ,1,1,0.,24.0,0.,24.0,0.,24.0,0.,24.0
1979-07-26 16:01:21.620 ,1,0,0.,24.0,0.,24.0,0.,24.0,0.,24.0
1979-07-26 16:01:45.620 ,2,1,0.,24.0,0.,24.0,1.,24.0,0.,24.0
1979-07-26 16:02:09.620 ,2,0,0.,24.0,0.,24.0,1.,24.0,0.,24.0
1979-07-26 16:02:33.620 ,3,1,0.,24.0,0.,24.0,1.,24.0,0.,24.0
1979-07-26 16:02:57.620 ,3,0,0.,24.0,0.,24.0,0.,24.0,0.,24.0
1979-07-26 16:03:21.620 ,4,1,0.,24.0,0.,24.0,2.,24.0,0.,24.0
1979-07-26 16:03:45.620 ,4,0,0.,24.0,0.,24.0,1.,24.0,0.,24.0
1979-07-26 16:04:09.620 ,5,1,2.,24.0,0.,24.0,0.,24.0,0.,24.0
1979-07-26 16:04:33.620 ,5,0,0.,24.0,0.,24.0,1.,24.0,0.,24.0
1979-07-26 16:04:57.620 ,6,1,0.,24.0,0.,24.0,1.,24.0,0.,24.0
1979-07-26 16:05:21.620 ,6,0,0.,24.0,0.,24.0,2.,24.0,0.,24.0
1979-07-26 16:05:45.620 ,7,1,10.,24.0,0.,24.0,4.,24.0,0.,24.0
1979-07-26 16:06:09.620 ,7,0,41.,24.0,0.,24.0,1.,24.0,0.,24.0
1979-07-26 16:06:33.620 ,7,1,28.,24.0,0.,24.0,1.,24.0,0.,24.0
1979-07-26 16:06:57.620 ,7,0,23.,24.0,0.,24.0,0.,24.0,0.,24.0
1979-07-26 16:07:21.620 ,6,1,28.,24.0,0.,24.0,1.,24.0,0.,24.0
1979-07-26 16:07:45.620 ,6,0,0.,24.0,0.,24.0,3.,24.0,0.,24.0
1979-07-26 16:08:09.620 ,5,1,1.,24.0,0.,24.0,2.,24.0,0.,24.0
1979-07-26 16:08:33.620 ,5,0,0.,24.0,0.,24.0,1.,24.0,0.,24.0
1979-07-26 16:08:57.620 ,4,1,0.,24.0,0.,24.0,1.,24.0,0.,24.0
1979-07-26 16:09:21.620 ,4,0,0.,24.0,0.,24.0,1.,24.0,0.,24.0
1979-07-26 16:09:45.620 ,3,1,0.,24.0,0.,24.0,0.,24.0,0.,24.0
1979-07-26 16:10:09.620 ,3,0,1.,24.0,0.,24.0,0.,24.0,0.,24.0
1979-07-26 16:10:33.620 ,2,1,1.,24.0,0.,24.0,0.,24.0,0.,24.0
1979-07-26 16:10:57.620 ,2,0,0.,24.0,1.,24.0,1.,24.0,0.,24.0
1979-07-26 16:11:21.620 ,1,1,0.,24.0,0.,24.0,1.,24.0,0.,24.0
1979-07-26 16:11:45.620 ,1,0,1.,24.0,0.,24.0,2.,24.0,0.,24.0
1979-07-26 16:12:09.620 ,0,1,0.,24.0,0.,24.0,0.,24.0,0.,24.0
1979-07-26 16:12:33.620 ,0,0,1.,24.0,0.,24.0,0.,24.0,0.,24.0
1979-07-26 16:12:57.620 ,0,1,0.,24.0,0.,24.0,1.,24.0,0.,24.0
1979-07-26 16:13:21.620 ,0,0,0.,24.0,0.,24.0,3.,24.0,0.,24.0
1979-07-26 16:13:45.620 ,1,1,3.,24.0,0.,24.0,3.,24.0,0.,24.0
1979-07-26 16:14:09.620 ,1,0,1.,24.0,1.,24.0,3.,24.0,0.,24.0
1979-07-26 16:14:33.620 ,2,1,0.,24.0,0.,24.0,0.,24.0,0.,24.0
1979-07-26 16:14:57.620 ,2,0,2.,24.0,0.,24.0,2.,24.0,0.,24.0
1979-07-26 16:15:21.620 ,3,1,0.,24.0,0.,24.0,1.,24.0,0.,24.0
1979-07-26 16:15:45.620 ,3,0,0.,24.0,0.,24.0,1.,24.0,0.,24.0
1979-07-26 16:16:09.620 ,4,1,0.,24.0,0.,24.0,1.,24.0,0.,24.0
1979-07-26 16:16:33.620 ,4,0,0.,24.0,0.,24.0,0.,24.0,0.,24.0
1979-07-26 16:16:57.620 ,5,1,1.,24.0,0.,24.0,0.,24.0,0.,24.0
1979-07-26 16:17:21.620 ,5,0,0.,24.0,0.,24.0,1.,24.0,0.,24.0
1979-07-26 16:17:45.620 ,6,1,1.,24.0,0.,24.0,1.,24.0,0.,24.0
1979-07-26 16:18:09.620 ,6,0,0.,24.0,0.,24.0,2.,24.0,0.,24.0
1979-07-26 16:18:33.620 ,7,0,5.,24.0,0.,24.0,2.,24.0,0.,24.0
1979-07-26 16:18:57.620 ,7,0,37.,24.0,0.,24.0,1.,24.0,0.,24.0
1979-07-26 16:19:21.620 ,5,1,20.,24.0,0.,24.0,0.,24.0,0.,24.0
1979-07-26 16:19:45.620 ,1,1,0.,24.0,0.,24.0,1.,24.0,0.,24.0
1979-07-26 16:20:09.620 ,2,1,1.,24.0,0.,24.0,1.,24.0,0.,24.0
1979-07-26 16:20:33.620 ,6,1,0.,24.0,0.,24.0,1.,24.0,0.,24.0
1979-07-26 16:20:57.620 ,5,1,13.,24.0,0.,24.0,1.,24.0,0.,24.0
1979-07-26 16:21:21.620 ,1,1,1.,24.0,0.,24.0,4.,24.0,0.,24.0
1979-07-26 16:21:45.620 ,2,1,0.,24.0,0.,24.0,1.,24.0,0.,24.0
1979-07-26 16:22:09.620 ,6,1,1.,24.0,0.,24.0,0.,24.0,0.,24.0
1979-07-26 16:22:33.620 ,5,1,20.,24.0,0.,24.0,4.,24.0,0.,24.0
1979-07-26 16:22:57.620 ,1,1,0.,24.0,0.,24.0,1.,24.0,0.,24.0
1979-07-26 16:23:21.620 ,2,1,0.,24.0,0.,24.0,2.,24.0,0.,24.0
1979-07-26 16:23:45.620 ,6,1,0.,24.0,0.,24.0,1.,24.0,0.,24.0
1979-07-26 16:24:09.620 ,5,1,18.,24.0,0.,24.0,2.,24.0,0.,24.0
1979-07-26 16:24:33.620 ,1,1,0.,24.0,2.,24.0,2.,24.0,0.,24.0
1979-07-26 16:24:57.620 ,2,1,1.,24.0,0.,24.0,0.,24.0,0.,24.0
1979-07-26 16:25:21.620 ,6,1,0.,24.0,0.,24.0,0.,24.0,0.,24.0
1979-07-26 16:25:45.620 ,5,1,16.,24.0,0.,24.0,0.,24.0,0.,24.0
1979-07-26 16:26:09.620 ,1,1,1.,24.0,0.,24.0,0.,24.0,0.,24.0
1979-07-26 16:26:33.620 ,2,1,1.,24.0,1.,24.0,2.,24.0,0.,24.0
1979-07-26 16:26:57.620 ,6,1,0.,24.0,0.,24.0,2.,24.0,0.,24.0
1979-07-26 16:27:21.620 ,5,1,23.,24.0,0.,24.0,2.,24.0,0.,24.0
1979-07-26 16:27:45.620 ,1,1,0.,24.0,0.,24.0,4.,24.0,0.,24.0
1979-07-26 16:28:09.620 ,2,1,0.,24.0,0.,24.0,2.,24.0,0.,24.0
1979-07-26 16:28:33.620 ,6,1,0.,24.0,0.,24.0,1.,24.0,0.,24.0
1979-07-26 16:28:57.620 ,5,1,14.,24.0,0.,24.0,0.,24.0,0.,24.0
1979-07-26 16:29:21.620 ,1,1,0.,24.0,0.,24.0,2.,24.0,0.,24.0
1979-07-26 16:29:45.620 ,0,0,2.,24.0,0.,24.0,1.,24.0,0.,24.0
1979-07-26 16:30:09.620 ,0,0,0.,24.0,0.,24.0,3.,24.0,0.,24.0
1979-07-26 16:30:33.620 ,5,1,20.,24.0,0.,24.0,1.,24.0,0.,24.0
1979-07-26 16:30:57.620 ,5,0,0.,24.0,0.,24.0,3.,24.0,0.,24.0
1979-07-26 16:31:21.620 ,4,1,0.,24.0,0.,24.0,2.,24.0,0.,24.0
1979-07-26 16:31:45.620 ,4,0,0.,24.0,0.,24.0,2.,24.0,0.,24.0
1979-07-26 16:32:09.620 ,3,1,0.,24.0,0.,24.0,3.,24.0,0.,24.0
1979-07-26 16:32:33.620 ,3,0,0.,24.0,0.,24.0,2.,24.0,0.,24.0
1979-07-26 16:32:57.620 ,2,1,1.,24.0,1.,24.0,1.,24.0,0.,24.0
1979-07-26 16:33:21.620 ,2,0,0.,24.0,1.,24.0,1.,24.0,0.,24.0
1979-07-26 16:33:45.620 ,1,1,0.,24.0,0.,24.0,1.,24.0,0.,24.0
1979-07-26 16:34:09.620 ,1,0,0.,24.0,0.,24.0,1.,24.0,0.,24.0
1979-07-26 16:34:33.620 ,0,1,1.,24.0,0.,24.0,2.,24.0,0.,24.0
1979-07-26 16:34:57.620 ,0,0,0.,24.0,1.,24.0,1.,24.0,0.,24.0
1979-07-26 16:35:21.620 ,0,1,2.,24.0,0.,24.0,1.,24.0,0.,24.0
1979-07-26 16:35:45.620 ,0,0,1.,24.0,1.,24.0,0.,24.0,0.,24.0
1979-07-26 16:36:09.620 ,1,1,3.,24.0,0.,24.0,2.,24.0,0.,24.0
1979-07-26 16:36:33.620 ,1,0,0.,24.0,0.,24.0,1.,24.0,0.,24.0
1979-07-26 16:36:57.620 ,2,1,0.,24.0,0.,24.0,1.,24.0,0.,24.0
1979-07-26 16:37:21.620 ,2,0,2.,24.0,0.,24.0,0.,24.0,0.,24.0
1979-07-26 16:37:45.620 ,3,1,0.,24.0,0.,24.0,1.,24.0,0.,24.0
1979-07-26 16:38:09.620 ,3,0,0.,24.0,0.,24.0,0.,24.0,0.,24.0
1979-07-26 16:38:33.620 ,4,1,0.,24.0,0.,24.0,1.,24.0,0.,24.0
1979-07-26 16:38:57.620 ,4,0,0.,24.0,0.,24.0,1.,24.0,0.,24.0
1979-07-26 16:39:21.620 ,5,1,0.,24.0,0.,24.0,0.,24.0,0.,24.0
1979-07-26 16:39:45.620 ,5,0,0.,24.0,0.,24.0,2.,24.0,0.,24.0
1979-07-26 16:40:09.620 ,6,1,0.,24.0,0.,24.0,2.,24.0,0.,24.0
1979-07-26 16:40:33.620 ,6,0,0.,24.0,0.,24.0,2.,24.0,0.,24.0
1979-07-26 16:40:57.620 ,7,1,5.,24.0,0.,24.0,2.,24.0,0.,24.0
1979-07-26 16:41:21.620 ,7,0,35.,24.0,0.,24.0,0.,24.0,0.,24.0
1979-07-26 16:41:45.620 ,7,1,25.,24.0,0.,24.0,1.,24.0,0.,24.0
1979-07-26 16:42:09.620 ,7,0,24.,24.0,0.,24.0,2.,24.0,0.,24.0
1979-07-26 16:42:33.620 ,6,1,22.,24.0,0.,24.0,1.,24.0,0.,24.0
1979-07-26 16:42:57.620 ,6,0,0.,24.0,0.,24.0,1.,24.0,0.,24.0
1979-07-26 16:43:21.620 ,5,1,0.,24.0,0.,24.0,2.,24.0,0.,24.0
1979-07-26 16:43:45.620 ,5,0,0.,24.0,0.,24.0,1.,24.0,0.,24.0
1979-07-26 16:44:09.620 ,4,1,0.,24.0,0.,24.0,2.,24.0,0.,24.0
1979-07-26 16:44:33.620 ,4,0,0.,24.0,0.,24.0,1.,24.0,0.,24.0
1979-07-26 16:44:57.620 ,3,1,0.,24.0,0.,24.0,2.,24.0,0.,24.0
1979-07-26 16:45:21.620 ,3,0,0.,24.0,0.,24.0,2.,24.0,0.,24.0
1979-07-26 16:45:45.620 ,2,1,0.,24.0,0.,24.0,1.,24.0,0.,24.0
1979-07-26 16:46:09.620 ,2,0,2.,24.0,0.,24.0,0.,24.0,0.,24.0
1979-07-26 16:46:33.620 ,1,1,0.,24.0,0.,24.0,1.,24.0,0.,24.0
1979-07-26 16:46:57.620 ,1,0,2.,24.0,1.,24.0,1.,24.0,0.,24.0
1979-07-26 16:47:21.620 ,0,1,1.,24.0,1.,24.0,1.,24.0,0.,24.0
1979-07-26 16:47:45.620 ,0,0,2.,24.0,0.,24.0,1.,24.0,0.,24.0
1979-07-26 16:48:09.620 ,0,1,0.,24.0,0.,24.0,2.,24.0,0.,24.0
1979-07-26 16:48:33.620 ,0,0,2.,24.0,1.,24.0,0.,24.0,0.,24.0
1979-07-26 16:48:57.620 ,1,1,0.,24.0,1.,24.0,0.,24.0,0.,24.0
1979-07-26 16:49:21.620 ,1,0,2.,24.0,0.,24.0,2.,24.0,0.,24.0
1979-07-26 16:49:45.620 ,2,1,1.,24.0,2.,24.0,1.,24.0,0.,24.0
1979-07-26 16:50:09.620 ,2,0,1.,24.0,0.,24.0,2.,24.0,0.,24.0
1979-07-26 16:50:33.620 ,3,1,0.,24.0,0.,24.0,3.,24.0,0.,24.0
1979-07-26 16:50:57.620 ,3,0,0.,24.0,0.,24.0,1.,24.0,0.,24.0
1979-07-26 16:51:21.620 ,4,1,0.,24.0,0.,24.0,0.,24.0,0.,24.0
1979-07-26 16:51:45.620 ,4,0,0.,24.0,0.,24.0,2.,24.0,0.,24.0
1979-07-26 16:52:09.620 ,5,1,0.,24.0,0.,24.0,0.,24.0,0.,24.0
1979-07-26 16:52:33.620 ,5,0,0.,24.0,0.,24.0,1.,24.0,0.,24.0
1979-07-26 16:52:57.620 ,6,1,0.,24.0,0.,24.0,3.,24.0,0.,24.0
1979-07-26 16:53:21.620 ,6,0,0.,24.0,0.,24.0,2.,24.0,0.,24.0
1979-07-26 16:53:45.620 ,7,1,5.,24.0,0.,24.0,0.,24.0,0.,24.0
1979-07-26 16:54:09.620 ,7,0,31.,24.0,0.,24.0,1.,24.0,0.,24.0
1979-07-26 16:54:33.620 ,7,1,30.,24.0,0.,24.0,1.,24.0,0.,24.0
1979-07-26 16:54:57.620 ,7,0,29.,24.0,0.,24.0,0.,24.0,0.,24.0
1979-07-26 16:55:21.620 ,6,1,15.,24.0,0.,24.0,3.,24.0,0.,24.0
1979-07-26 16:55:45.620 ,6,0,0.,24.0,0.,24.0,3.,24.0,0.,24.0
1979-07-26 16:56:09.620 ,5,1,0.,24.0,0.,24.0,0.,24.0,0.,24.0
1979-07-26 16:56:33.620 ,5,0,0.,24.0,0.,24.0,1.,24.0,0.,24.0
1979-07-26 16:56:57.620 ,4,1,0.,24.0,0.,24.0,1.,24.0,0.,24.0
1979-07-26 16:57:21.620 ,4,0,0.,24.0,0.,24.0,2.,24.0,0.,24.0
1979-07-26 16:57:45.620 ,3,1,0.,24.0,0.,24.0,0.,24.0,0.,24.0
1979-07-26 16:58:09.620 ,3,0,0.,24.0,0.,24.0,1.,24.0,0.,24.0
1979-07-26 16:58:33.620 ,2,1,0.,24.0,0.,24.0,2.,24.0,0.,24.0
1979-07-26 16:58:57.620 ,2,0,1.,24.0,0.,24.0,0.,24.0,0.,24.0
1979-07-26 16:59:21.620 ,1,1,0.,24.0,0.,24.0,0.,24.0,0.,24.0
1979-07-26 16:59:45.620 ,1,0,3.,24.0,1.,24.0,1.,24.0,0.,24.0
1979-07-26 17:00:09.620 ,0,1,1.,24.0,0.,24.0,1.,24.0,0.,24.0
1979-07-26 17:00:33.620 ,0,0,3.,24.0,0.,24.0,3.,24.0,0.,24.0
1979-07-26 17:00:57.620 ,0,1,2.,24.0,1.,24.0,2.,24.0,0.,24.0
1979-07-26 17:01:21.620 ,0,0,1.,24.0,0.,24.0,0.,24.0,0.,24.0
1979-07-26 17:01:45.620 ,1,1,0.,24.0,0.,24.0,3.,24.0,0.,24.0
1979-07-26 17:02:09.620 ,1,0,3.,24.0,1.,24.0,1.,24.0,0.,24.0
1979-07-26 17:02:33.620 ,2,1,1.,24.0,1.,24.0,0.,24.0,0.,24.0
1979-07-26 17:02:57.620 ,2,0,2.,24.0,0.,24.0,1.,24.0,0.,24.0
1979-07-26 17:03:21.620 ,3,1,0.,24.0,0.,24.0,2.,24.0,0.,24.0
1979-07-26 17:03:45.620 ,3,0,0.,24.0,0.,24.0,1.,24.0,0.,24.0
1979-07-26 17:04:09.620 ,4,1,0.,24.0,0.,24.0,1.,24.0,0.,24.0
1979-07-26 17:04:33.620 ,4,0,0.,24.0,0.,24.0,2.,24.0,0.,24.0
1979-07-26 17:04:57.620 ,5,1,0.,24.0,0.,24.0,2.,24.0,0.,24.0
1979-07-26 17:05:21.620 ,5,0,0.,24.0,0.,24.0,1.,24.0,0.,24.0
1979-07-26 17:05:45.620 ,6,1,0.,24.0,0.,24.0,1.,24.0,0.,24.0
1979-07-26 17:06:09.620 ,6,0,0.,24.0,0.,24.0,3.,24.0,0.,24.0
1979-07-26 17:06:33.620 ,7,0,5.,24.0,0.,24.0,0.,24.0,0.,24.0
1979-07-26 17:06:57.620 ,7,0,30.,24.0,0.,24.0,3.,24.0,0.,24.0
1979-07-26 17:07:21.620 ,5,1,8.,24.0,0.,24.0,0.,24.0,0.,24.0
1979-07-26 17:07:45.620 ,1,1,0.,24.0,1.,24.0,3.,24.0,0.,24.0
1979-07-26 17:08:09.620 ,2,1,1.,24.0,1.,24.0,1.,24.0,0.,24.0
1979-07-26 17:08:33.620 ,6,1,0.,24.0,0.,24.0,1.,24.0,0.,24.0
1979-07-26 17:08:57.620 ,5,1,15.,24.0,0.,24.0,0.,24.0,0.,24.0
1979-07-26 17:09:21.620 ,1,1,0.,24.0,0.,24.0,4.,24.0,0.,24.0
1979-07-26 17:09:45.620 ,2,1,3.,24.0,0.,24.0,3.,24.0,0.,24.0
1979-07-26 17:10:09.620 ,6,1,0.,24.0,0.,24.0,0.,24.0,0.,24.0
1979-07-26 17:10:33.620 ,5,1,11.,24.0,0.,24.0,0.,24.0,0.,24.0
1979-07-26 17:10:57.620 ,1,1,0.,24.0,0.,24.0,2.,24.0,0.,24.0
1979-07-26 17:11:21.620 ,2,1,3.,24.0,0.,24.0,0.,24.0,0.,24.0
1979-07-26 17:11:45.620 ,6,1,0.,24.0,0.,24.0,1.,24.0,0.,24.0
1979-07-26 17:12:09.620 ,5,1,13.,24.0,0.,24.0,3.,24.0,0.,24.0
1979-07-26 17:12:33.620 ,1,1,0.,24.0,0.,24.0,1.,24.0,0.,24.0
1979-07-26 17:12:57.620 ,2,1,0.,24.0,0.,24.0,0.,24.0,0.,24.0
1979-07-26 17:13:21.620 ,6,1,0.,24.0,0.,24.0,2.,24.0,0.,24.0
1979-07-26 17:13:45.620 ,5,1,14.,24.0,0.,24.0,1.,24.0,0.,24.0
1979-07-26 17:14:09.620 ,1,1,0.,24.0,0.,24.0,1.,24.0,0.,24.0
1979-07-26 17:14:33.620 ,2,1,1.,24.0,2.,24.0,1.,24.0,0.,24.0
1979-07-26 17:14:57.620 ,6,1,0.,24.0,0.,24.0,1.,24.0,0.,24.0
1979-07-26 17:15:21.620 ,5,1,11.,24.0,0.,24.0,1.,24.0,0.,24.0
1979-07-26 17:15:45.620 ,1,1,0.,24.0,0.,24.0,0.,24.0,0.,24.0
1979-07-26 17:16:09.620 ,2,1,0.,24.0,0.,24.0,1.,24.0,0.,24.0
1979-07-26 17:16:33.620 ,6,1,0.,24.0,0.,24.0,1.,24.0,0.,24.0
1979-07-26 17:16:57.620 ,5,1,10.,24.0,0.,24.0,0.,24.0,0.,24.0
1979-07-26 17:17:21.620 ,1,1,2.,24.0,1.,24.0,0.,24.0,0.,24.0
1979-07-26 17:17:45.620 ,0,0,1.,24.0,0.,24.0,0.,24.0,0.,24.0
1979-07-26 17:18:09.620 ,0,0,0.,24.0,0.,24.0,1.,24.0,0.,24.0
1979-07-26 17:18:33.620 ,5,1,15.,24.0,0.,24.0,0.,24.0,0.,24.0
1979-07-26 17:18:57.620 ,5,0,0.,24.0,0.,24.0,1.,24.0,0.,24.0
1979-07-26 17:19:21.620 ,4,1,0.,24.0,0.,24.0,0.,24.0,0.,24.0
1979-07-26 17:19:45.620 ,4,0,0.,24.0,0.,24.0,0.,24.0,0.,24.0
1979-07-26 17:20:09.620 ,3,1,0.,24.0,0.,24.0,2.,24.0,0.,24.0
1979-07-26 17:20:33.620 ,3,0,1.,24.0,0.,24.0,1.,24.0,0.,24.0
1979-07-26 17:20:57.620 ,2,1,0.,24.0,0.,24.0,0.,24.0,0.,24.0
1979-07-26 17:21:21.620 ,2,0,1.,24.0,0.,24.0,1.,24.0,0.,24.0
1979-07-26 17:21:45.620 ,1,1,0.,24.0,0.,24.0,0.,24.0,0.,24.0
1979-07-26 17:22:09.620 ,1,0,0.,24.0,0.,24.0,1.,24.0,0.,24.0
1979-07-26 17:22:33.620 ,0,1,1.,24.0,1.,24.0,1.,24.0,0.,24.0
1979-07-26 17:22:57.620 ,0,0,0.,24.0,1.,24.0,0.,24.0,0.,24.0
1979-07-26 17:23:21.620 ,0,1,1.,24.0,0.,24.0,0.,24.0,0.,24.0
1979-07-26 17:23:45.620 ,0,0,3.,24.0,1.,24.0,0.,24.0,0.,24.0
1979-07-26 17:24:09.620 ,1,1,1.,24.0,0.,24.0,0.,24.0,0.,24.0
1979-07-26 17:24:33.620 ,1,0,0.,24.0,0.,24.0,0.,24.0,0.,24.0
1979-07-26 17:24:57.620 ,2,1,2.,24.0,0.,24.0,1.,24.0,0.,24.0
1979-07-26 17:25:21.620 ,2,0,0.,24.0,0.,24.0,2.,24.0,0.,24.0
1979-07-26 17:25:45.620 ,3,1,0.,24.0,0.,24.0,0.,24.0,0.,24.0
1979-07-26 17:26:09.620 ,3,0,0.,24.0,0.,24.0,1.,24.0,0.,24.0
1979-07-26 17:26:33.620 ,4,1,0.,24.0,0.,24.0,0.,24.0,0.,24.0
1979-07-26 17:26:57.620 ,4,0,0.,24.0,0.,24.0,0.,24.0,0.,24.0
1979-07-26 17:27:21.620 ,5,1,0.,24.0,0.,24.0,1.,24.0,0.,24.0
1979-07-26 17:27:45.620 ,5,0,0.,24.0,0.,24.0,2.,24.0,0.,24.0
1979-07-26 17:28:09.620 ,6,1,0.,24.0,0.,24.0,2.,24.0,0.,24.0
1979-07-26 17:28:33.620 ,6,0,0.,24.0,0.,24.0,2.,24.0,0.,24.0
1979-07-26 17:28:57.620 ,7,1,10.,24.0,0.,24.0,1.,24.0,0.,24.0
1979-07-26 17:29:21.620 ,7,0,23.,24.0,0.,24.0,1.,24.0,0.,24.0
1979-07-26 17:29:45.620 ,7,1,34.,24.0,0.,24.0,2.,24.0,0.,24.0
1979-07-26 17:30:09.620 ,7,0,23.,24.0,0.,24.0,2.,24.0,0.,24.0
1979-07-26 17:30:33.620 ,6,1,16.,24.0,0.,24.0,3.,24.0,0.,24.0
1979-07-26 17:30:57.620 ,6,0,0.,24.0,0.,24.0,2.,24.0,0.,24.0
1979-07-26 17:31:21.620 ,5,1,0.,24.0,0.,24.0,2.,24.0,0.,24.0
1979-07-26 17:31:45.620 ,5,0,0.,24.0,0.,24.0,3.,24.0,0.,24.0
1979-07-26 17:32:09.620 ,4,1,0.,24.0,0.,24.0,5.,24.0,0.,24.0
1979-07-26 17:32:33.620 ,4,0,0.,24.0,0.,24.0,5.,24.0,0.,24.0
1979-07-26 17:32:57.620 ,3,1,0.,24.0,0.,24.0,4.,24.0,0.,24.0
1979-07-26 17:33:21.620 ,3,0,0.,24.0,0.,24.0,5.,24.0,0.,24.0
1979-07-26 17:33:45.620 ,2,1,1.,24.0,0.,24.0,1.,24.0,0.,24.0
1979-07-26 17:34:09.620 ,2,0,0.,24.0,0.,24.0,1.,24.0,0.,24.0